Location: Newark
(49.4900°N, 20.6656°E)
Time: 07:03:50
(UTC+00:00)

STARLINK-1765 - Pass Details

Date: 24 September 2020
Orbit: 379 x 381 km, 53.0° (Epoch: 24 October)

Event Time Altitude Azimuth Distance (km) Brightness Sun altitude
Exits shadow 01:34:29 23° 56° (NE) 942 5.5 -27.2°
Drops below altitude 10° 01:35:58 10° 68° (ENE) 1,492 6.8 -27.0°
Sets 01:38:07 0° 74° (ENE) 2,359 8.0 -26.7°
